Wind_Speed
35 33 33 30 30 32 31 29 27 27 28 28 30 28 27 30 40 45 48 38 46 12 19 27 29 20 22 26 5 5 6 5 5 7 4 4 3 5 4 5 3 6 5 4 4 5 7 5 13 6 5 16 17 14
33 33 30 33 31 31 31 31 31 31 31 30 31 31 32 32 30 34 32 41 37 30 5 29 32 35 34 33 24 13 5 4 7 3 3 2 3 0 5 3 4 5 6 3 6 4 4 9 10 31 24 23 16 18
33 33 36 36 33 32 31 31 31 32 32 32 34 35 35 34 33 33 30 29 35 28 20 30 18 35 31 32 32 18 12 13 5 6 2 2 3 4 4 5 6 4 4 4 1 6 12 18 19 30 23 27 14 19
35 35 34 33 33 33 32 32 33 32 32 33 34 34 35 35 33 33 34 29 36 11 4 5 29 30 37 36 35 35 29 17 19 9 7 2 2 5 4 5 6 7 3 5 6 12 22 25 17 17 26 21 20 9
33 33 30 23 23 27 29 32 33 32 32 34 36 38 38 37 35 31 31 30 29 15 4 6 14 25 43 42 41 39 36 22 17 0 2 3 3 2 2 2 3 7 7 4 6 13 4 15 26 31 22 18 9 9
24 14 15 16 17 20 23 25 25 27 30 33 33 31 36 38 35 35 15 35 36 21 4 1 7 15 34 39 42 35 33 27 18 6 3 6 9 5 3 3 5 18 20 10 4 15 23 31 32 14 8 6 1 3
11 14 17 16 15 17 20 23 25 26 27 28 33 33 31 35 41 34 8 9 36 29 1 1 2 4 26 26 33 28 25 19 14 7 6 5 6 7 2 4 5 11 14 17 18 22 19 23 14 23 11 7 10 10
8 7 8 8 11 12 12 17 23 29 33 34 34 37 36 33 39 26 9 9 35 23 4 2 3 2 21 8 10 26 16 14 7 5 6 3 2 4 4 6 23 29 31 30 28 20 18 23 20 14 8 13 6 7
13 13 12 14 12 9 5 3 9 23 32 35 40 39 33 28 16 23 9 31 29 10 5 4 3 3 18 5 7 9 12 3 8 3 3 5 3 6 8 14 22 24 22 24 17 18 18 16 14 10 10 10 11 13
25 24 28 39 24 22 20 25 32 38 42 46 45 16 8 16 36 39 21 7 8 5 4 2 5 2 10 4 2 4 6 3 3 5 5 3 4 8 10 15 19 17 17 18 16 14 12 13 14 14 13 12 12 16
26 26 25 36 36 27 24 46 50 51 44 25 7 10 52 43 25 6 5 5 6 4 9 6 7 3 7 3 3 7 3 3 3 3 6 3 4 1 5 8 11 13 11 13 18 22 22 21 19 17 16 15 18 19
21 23 18 17 23 37 32 36 28 25 23 27 28 32 22 7 4 3 3 2 2 4 5 4 6 5 6 4 2 2 3 2 4 5 3 3 2 7 8 8 9 9 9 10 9 10 9 14 17 18 20 22 24 25
14 15 17 14 23 27 34 36 38 43 44 26 10 6 5 6 4 2 4 2 2 2 6 6 4 4 5 4 2 2 4 5 5 3 3 2 7 10 10 8 6 5 4 5 4 6 10 15 18 21 26 27 31 34
13 12 12 15 16 17 17 13 21 20 9 9 6 6 3 4 3 3 3 3 4 3 12 13 5 2 3 2 2 3 3 2 3 3 1 3 9 8 7 5 2 1 3 5 8 12 16 19 23 25 29 32 36 38
13 10 9 6 13 14 15 9 13 15 6 6 7 5 4 3 7 8 6 4 6 3 4 7 6 4 2 3 2 1 1 1 1 2 2 6 7 7 7 5 5 7 9 12 14 17 22 27 29 31 33 36 39 40
5 7 11 13 10 6 2 4 11 10 8 7 10 4 9 3 6 10 13 7 11 3 0 4 3 3 3 2 4 3 2 1 2 2 5 5 7 7 6 6 9 12 15 20 24 26 28 31 34 35 35 40 40 39
3 4 7 8 16 12 3 5 8 10 7 6 5 15 8 5 4 9 11 15 11 6 3 3 5 3 2 3 3 3 2 3 5 10 8 7 8 10 9 11 13 16 20 23 27 28 32 36 39 41 41 41 39 37
9 7 6 8 6 6 29 13 9 9 9 12 5 11 15 14 13 13 15 19 7 5 4 4 4 6 4 3 2 3 6 11 13 14 13 11 11 13 16 20 22 25 29 31 33 35 36 37 40 39 39 37 37 35
14 11 7 6 7 6 7 9 9 6 11 6 7 7 8 14 23 19 18 16 20 15 9 6 5 3 3 3 3 10 7 6 11 15 16 14 15 18 22 25 26 28 31 32 34 35 34 35 36 35 34 31 32 28
10 12 14 8 5 7 7 7 7 9 4 6 8 19 14 12 16 21 26 23 20 9 7 5 3 6 6 11 9 4 6 9 12 16 16 16 16 17 20 23 26 27 29 30 31 31 31 30 29 27 26 25 25 25
6 10 14 17 24 14 8 5 8 7 9 5 5 4 7 13 23 21 17 19 15 8 3 9 12 10 7 8 7 5 3 3 5 8 14 16 16 18 19 20 23 25 27 27 28 27 25 25 23 21 20 21 21 22
11 12 14 13 9 7 9 11 9 9 6 9 5 6 6 4 7 14 16 18 8 10 9 12 13 14 14 14 12 9 7 7 10 13 15 17 19 19 19 19 20 23 22 23 23 23 22 20 18 18 17 19 17 17
5 7 8 9 7 7 4 6 4 5 3 2 3 4 4 5 6 7 7 8 8 13 10 9 9 9 11 10 10 11 10 11 15 15 14 16 17 18 18 19 19 21 21 20 18 17 18 16 14 13 14 15 15 16
8 7 8 7 10 3 4 6 5 5 5 3 3 3 3 4 6 7 4 4 13 15 13 9 6 9 11 13 16 14 13 11 14 16 15 17 19 19 18 18 17 16 15 14 14 15 15 14 12 12 12 12 12 12
6 11 8 7 10 6 6 5 5 5 4 5 4 4 3 4 3 3 2 6 15 16 13 11 11 12 15 15 14 13 10 9 14 18 16 16 18 18 18 18 17 16 12 9 11 11 12 11 11 11 11 10 10 10
8 12 7 5 5 5 3 4 4 4 3 4 4 3 4 3 4 4 2 7 9 10 10 10 11 13 15 15 15 15 14 12 13 18 16 13 13 14 14 14 12 11 9 7 5 7 9 10 9 9 10 9 8 7
6 4 8 10 4 6 6 8 6 5 4 4 2 3 3 5 3 1 1 7 6 6 6 6 8 11 13 13 12 12 9 8 9 14 13 11 11 11 9 7 7 9 8 8 7 6 5 7 7 7 6 7 7 6
7 9 5 10 11 12 4 4 4 4 2 5 4 5 4 3 2 2 2 6 8 10 11 12 12 11 12 12 13 12 12 12 11 10 8 7 7 7 7 6 6 6 6 7 7 6 6 5 5 4 4 3 2 2
9 5 5 7 8 9 10 3 3 5 5 3 4 2 3 4 4 7 7 6 6 6 9 9 10 9 8 8 8 7 7 7 5 5 5 5 4 5 5 5 4 4 4 4 4 5 5 4 4 4 3 2 2 2
6 7 7 7 5 5 9 9 8 9 11 11 10 19 20 17 13 10 8 7 7 8 8 7 7 7 7 7 8 7 5 4 4 5 5 4 3 3 3 3 3 3 3 3 3 2 2 2 2 2 1 2 3 5
5 6 7 8 6 14 21 23 22 22 23 22 20 20 13 8 9 8 7 7 6 7 7 6 5 5 7 6 6 5 5 6 6 6 5 4 3 2 2 2 2 1 1 1 1 0 1 1 2 2 3 4 5 6
7 6 7 4 4 7 5 4 5 6 4 5 6 6 4 3 3 3 3 6 6 5 4 4 3 4 6 6 6 6 5 5 5 5 4 4 3 3 2 1 1 1 1 1 2 2 3 4 5 5 6 6 7 8
12 18 14 7 4 4 3 3 3 3 3 3 3 3 3 2 3 3 3 4 3 2 3 3 2 3 5 5 5 5 4 4 4 4 4 4 3 4 4 3 2 1 2 2 3 3 3 4 5 5 6 7 7 8
Wind_Direction
285 283 281 279 272 267 262 257 250 243 240 236 233 233 233 224 217 216 217 216 209 231 231 219 216 210 195 195 178 167 192 195 169 186 201 185 194 227 201 248 210 194 187 201 202 221 263 3 2 307 283 319 349 359
283 284 280 283 280 266 260 253 249 246 241 237 230 226 227 225 223 214 213 214 215 220 249 222 220 220 213 201 192 194 205 156 157 156 193 186 214 116 181 223 232 256 194 220 190 223 204 12 285 289 268 275 297 349
286 285 282 281 274 264 255 253 249 246 241 235 231 226 223 220 218 215 207 204 201 211 232 245 225 215 214 212 213 204 235 216 223 199 158 237 221 143 175 223 223 253 181 218 115 251 242 258 295 280 288 261 267 311
286 285 281 277 271 265 260 246 247 244 237 232 225 221 218 214 212 211 210 197 195 180 230 223 233 224 213 210 216 224 232 236 233 224 205 224 217 182 215 212 183 215 177 206 244 278 281 272 276 328 326 295 267 280
286 286 287 292 275 260 251 245 242 238 230 225 222 220 217 214 208 207 214 207 178 176 170 192 234 231 215 210 213 221 230 237 241 178 218 219 216 211 275 326 219 205 225 203 253 247 249 286 317 325 324 314 300 251
294 274 288 284 277 263 252 248 240 230 223 219 213 210 209 206 201 192 190 220 220 221 246 289 246 232 207 212 215 223 227 220 218 227 202 217 222 200 210 248 261 242 252 230 239 278 291 296 307 335 294 276 246 95
308 288 290 291 278 267 255 241 233 224 216 215 210 202 195 193 194 182 172 196 203 196 170 256 273 243 206 199 212 217 222 221 223 223 217 219 219 200 209 222 280 289 287 274 267 278 290 291 304 309 302 156 115 75
357 352 340 336 306 278 265 251 238 224 214 207 198 189 189 192 184 180 148 178 179 171 216 190 256 134 170 165 180 209 212 205 223 209 209 199 186 182 245 229 233 248 254 255 259 260 273 289 286 274 228 198 195 140
64 57 42 8 34 85 62 331 222 197 185 179 173 171 169 168 158 166 163 155 158 166 184 187 158 171 162 135 158 161 185 181 193 223 202 171 195 219 218 223 227 237 230 240 247 260 278 265 232 212 200 180 181 153
82 64 68 82 75 82 84 82 107 129 141 148 148 135 113 127 129 129 131 139 161 211 208 213 137 188 155 112 93 134 151 201 204 205 175 187 251 233 231 250 263 272 247 249 270 266 246 219 204 198 189 184 173 151
94 84 74 77 58 47 70 104 117 115 117 113 85 95 125 127 127 99 132 168 156 183 179 185 181 133 154 131 135 208 147 164 175 232 180 225 252 138 317 289 290 282 272 260 260 265 267 259 205 182 161 160 153 148
100 75 73 80 57 55 102 111 102 105 105 113 113 111 110 90 92 115 140 145 159 175 144 137 152 139 128 123 100 200 138 120 224 138 187 243 86 10 343 317 303 290 281 286 277 260 238 203 188 174 159 155 148 144
107 73 85 81 87 55 85 99 100 110 112 111 94 74 46 2 75 91 158 125 114 108 151 150 114 119 131 155 130 156 159 203 117 202 210 42 7 355 341 318 314 306 288 266 245 210 183 169 161 160 150 145 143 140
103 86 67 43 36 53 66 100 115 127 86 52 53 59 65 2 29 25 341 15 41 349 130 116 103 123 141 88 113 126 207 149 220 224 176 2 360 349 347 357 332 68 132 144 150 157 151 150 141 143 145 144 143 138
69 99 71 64 29 32 37 60 142 155 91 66 35 50 56 32 14 358 8 59 18 72 153 125 98 98 70 102 17 31 82 98 90 284 327 344 355 7 20 46 90 107 123 126 133 136 134 132 130 132 138 140 137 134
45 59 47 31 7 338 49 60 86 86 62 64 44 25 360 28 3 11 4 10 24 30 114 57 97 83 46 63 54 26 65 20 320 357 8 6 33 44 65 90 109 121 124 126 124 124 127 131 132 125 131 130 130 134
42 62 22 36 30 30 104 86 53 56 60 56 45 24 45 42 359 342 352 348 2 7 50 25 56 56 15 60 55 20 61 344 44 54 55 56 73 88 101 110 116 121 122 121 122 124 123 126 128 132 124 124 127 127
58 36 24 14 7 49 52 48 73 63 63 46 76 49 52 46 17 14 14 20 39 59 46 59 48 45 34 40 29 351 59 68 84 85 89 92 96 102 108 113 117 120 119 120 122 123 125 127 125 121 122 124 123 122
46 35 23 27 59 78 61 44 48 87 52 58 43 47 41 37 34 43 45 54 76 90 85 55 56 41 10 7 333 357 42 91 89 90 95 104 113 117 117 119 118 117 118 122 125 124 124 124 124 126 125 126 121 122
47 46 49 49 76 80 75 55 63 84 76 118 85 68 65 43 31 35 38 47 54 60 51 45 35 350 327 328 348 322 118 127 122 107 97 105 117 125 123 124 121 124 123 124 123 124 124 124 124 125 125 123 125 125
72 67 72 74 62 67 78 72 64 96 123 101 108 74 68 39 37 34 29 36 55 39 60 21 13 24 44 64 88 111 126 161 144 137 123 112 119 122 123 125 128 126 123 123 122 122 121 119 121 122 123 124 124 122
84 87 64 50 65 69 64 43 100 115 90 131 102 63 53 38 25 26 38 40 57 30 28 24 34 47 54 57 64 80 91 113 125 129 129 128 123 122 122 126 129 123 122 120 120 118 117 119 123 126 126 124 125 122
66 51 53 42 73 63 57 47 71 45 78 74 73 57 41 45 38 34 69 42 40 14 25 35 37 53 67 76 83 87 96 112 115 118 123 122 120 120 123 124 124 122 118 115 116 117 120 121 123 126 125 125 128 127
71 54 35 45 46 67 74 37 45 52 54 35 61 76 56 60 49 64 71 47 6 19 30 41 69 84 83 79 72 76 84 100 110 112 116 121 118 113 116 114 112 108 108 116 124 123 121 124 124 124 124 128 131 132
77 13 28 13 26 54 43 27 12 44 55 31 66 43 22 49 69 64 68 8 11 22 30 48 67 79 83 81 81 82 89 104 112 109 106 110 113 116 113 111 108 105 104 115 121 124 126 126 127 128 127 130 132 132
69 23 47 24 17 65 28 62 40 30 42 57 41 30 50 65 65 57 48 358 4 18 33 53 75 85 83 83 87 88 89 98 110 106 100 103 106 107 107 108 110 114 118 114 117 130 131 131 132 132 132 129 123 122
59 358 51 40 65 85 72 62 59 65 60 36 333 33 58 66 61 64 29 22 27 43 57 71 84 90 92 88 84 82 82 89 96 98 101 103 102 98 96 101 119 123 127 128 128 124 130 135 136 135 139 145 146 144
65 41 67 6 59 42 89 47 38 36 357 9 57 39 97 135 172 88 96 72 73 83 89 88 86 87 88 87 84 80 79 76 76 80 84 93 96 100 103 105 114 122 126 136 138 138 139 142 146 148 149 154 157 187
50 57 66 33 54 49 40 65 22 18 7 24 103 100 89 75 101 121 106 91 85 82 83 81 80 74 73 72 67 62 64 70 70 69 74 85 76 92 96 98 104 116 119 126 147 154 155 163 171 178 183 192 229 271
52 37 89 56 56 41 24 40 65 70 85 89 93 107 97 96 95 94 92 87 77 65 59 64 78 66 56 55 49 47 50 52 46 45 60 59 72 80 96 100 102 115 127 132 118 131 154 160 178 200 241 263 273 279
80 72 71 63 77 108 96 85 86 88 93 97 112 106 106 103 97 91 91 84 71 53 49 60 56 46 29 30 32 30 33 39 38 44 52 61 72 87 92 74 56 61 83 91 112 151 202 239 260 273 278 283 288 293
47 68 113 98 135 152 66 70 75 77 69 71 73 96 97 110 100 118 116 103 76 38 24 20 38 45 28 29 33 35 34 31 28 27 30 28 19 21 22 12 325 297 257 240 251 259 263 264 266 273 280 286 291 297
81 85 93 98 108 163 133 126 80 88 77 76 73 59 63 78 111 137 123 147 144 27 26 23 54 41 33 35 33 27 23 21 21 19 8 6 9 0 349 343 334 319 293 274 271 268 269 273 278 283 290 296 300 302
Height
1322 1319 1318 1316 1316 1316 1318 1320 1322 1326 1330 1333 1337 1341 1345 1350 1357 1364 1371 1375 1383 1385 1387 1390 1394 1398 1404 1409 1415 1417 1422 1422 1425 1428 1430 1429 1432 1424 1420 1413 1411 1416 1418 1413 1413 1413 1409 1396 1390 1392 1387 1376 1372 1364
1311 1309 1307 1306 1305 1305 1307 1309 1312 1316 1320 1324 1328 1333 1338 1343 1349 1356 1363 1368 1377 1382 1381 1383 1386 1392 1395 1401 1410 1412 1409 1411 1413 1419 1425 1422 1426 1425 1416 1419 1405 1413 1406 1407 1406 1399 1393 1389 1389 1381 1385 1379 1373 1366
1300 1298 1295 1293 1292 1293 1295 1298 1301 1305 1309 1314 1319 1324 1330 1336 1343 1350 1355 1363 1371 1376 1379 1381 1378 1385 1392 1396 1400 1405 1404 1407 1409 1408 1412 1412 1415 1410 1418 1412 1404 1399 1397 1400 1401 1390 1387 1384 1379 1374 1372 1370 1368 1366
1289 1285 1282 1280 1279 1279 1281 1285 1289 1293 1298 1303 1309 1316 1322 1330 1338 1345 1351 1355 1365 1369 1372 1369 1373 1378 1383 1388 1392 1395 1398 1400 1404 1405 1408 1408 1410 1399 1403 1397 1399 1393 1391 1392 1390 1386 1380 1375 1378 1373 1370 1366 1364 1365
1276 1273 1269 1266 1265 1265 1267 1270 1275 1279 1285 1291 1298 1305 1314 1323 1332 1343 1349 1353 1355 1365 1364 1366 1365 1364 1373 1378 1383 1389 1393 1396 1401 1403 1404 1402 1401 1401 1397 1395 1393 1385 1385 1389 1385 1380 1382 1374 1372 1369 1364 1361 1360 1363
1264 1263 1261 1259 1257 1257 1257 1260 1263 1267 1273 1281 1289 1297 1306 1316 1327 1337 1344 1348 1351 1356 1362 1363 1360 1358 1362 1370 1377 1382 1387 1392 1395 1398 1398 1396 1393 1393 1395 1394 1380 1379 1377 1378 1379 1379 1377 1371 1369 1368 1363 1363 1361 1361
1260 1258 1255 1252 1249 1248 1247 1249 1252 1258 1265 1272 1281 1291 1302 1311 1320 1326 1332 1335 1346 1359 1361 1363 1358 1355 1358 1367 1373 1379 1383 1386 1391 1392 1391 1391 1389 1389 1389 1386 1380 1378 1377 1376 1375 1375 1372 1369 1367 1365 1361 1361 1361 1358
1258 1255 1252 1248 1243 1239 1238 1237 1238 1243 1253 1264 1275 1288 1300 1309 1321 1327 1332 1334 1341 1356 1361 1359 1356 1355 1358 1363 1369 1375 1379 1384 1386 1385 1386 1385 1384 1384 1381 1376 1374 1371 1371 1372 1371 1370 1368 1366 1364 1361 1359 1358 1359 1355
1262 1258 1253 1246 1239 1237 1235 1229 1224 1228 1241 1256 1273 1288 1300 1306 1313 1322 1333 1337 1345 1352 1353 1353 1350 1351 1357 1361 1367 1371 1376 1379 1380 1377 1378 1381 1379 1374 1371 1367 1364 1362 1363 1364 1365 1365 1364 1361 1359 1357 1356 1357 1358 1357
1266 1264 1259 1252 1248 1244 1239 1235 1230 1233 1245 1261 1276 1284 1298 1305 1313 1323 1336 1342 1348 1348 1349 1348 1349 1350 1354 1357 1365 1369 1372 1375 1373 1372 1374 1375 1368 1362 1363 1364 1362 1360 1360 1361 1362 1360 1359 1358 1352 1352 1353 1355 1358 1357
1274 1272 1269 1262 1259 1255 1253 1251 1251 1254 1260 1270 1279 1285 1297 1309 1316 1325 1332 1337 1341 1344 1344 1345 1346 1348 1354 1356 1361 1365 1363 1369 1371 1369 1370 1367 1362 1362 1362 1361 1359 1358 1357 1357 1357 1355 1353 1351 1348 1350 1351 1356 1357 1361
1281 1280 1277 1273 1269 1268 1266 1268 1270 1270 1273 1279 1285 1296 1304 1312 1319 1324 1329 1330 1331 1333 1337 1340 1345 1348 1352 1354 1357 1361 1362 1366 1367 1365 1366 1359 1361 1364 1363 1360 1358 1356 1354 1353 1352 1351 1348 1349 1347 1349 1351 1357 1359 1365
1287 1286 1284 1283 1282 1280 1281 1282 1282 1283 1287 1291 1295 1304 1311 1320 1322 1324 1330 1328 1329 1331 1335 1337 1344 1347 1351 1354 1355 1355 1356 1360 1360 1359 1356 1362 1365 1364 1362 1361 1357 1355 1353 1352 1352 1349 1347 1349 1349 1351 1354 1359 1362 1365
1292 1292 1292 1289 1288 1289 1291 1292 1294 1293 1291 1298 1306 1324 1330 1340 1337 1337 1335 1332 1334 1334 1335 1337 1343 1346 1348 1350 1351 1354 1356 1354 1351 1349 1363 1369 1368 1367 1364 1359 1357 1356 1354 1353 1352 1352 1350 1352 1353 1356 1359 1363 1363 1370
1297 1296 1295 1294 1293 1292 1293 1293 1295 1299 1303 1312 1319 1335 1339 1341 1340 1339 1336 1336 1337 1336 1338 1340 1342 1344 1348 1351 1353 1352 1352 1359 1370 1374 1374 1372 1370 1366 1363 1361 1360 1359 1358 1356 1356 1355 1355 1355 1359 1362 1365 1364 1367 1373
1301 1301 1300 1299 1297 1295 1295 1296 1295 1297 1311 1325 1339 1343 1345 1343 1344 1342 1341 1340 1339 1338 1338 1337 1341 1346 1355 1357 1360 1368 1370 1377 1377 1375 1374 1372 1369 1368 1366 1365 1363 1363 1362 1363 1362 1362 1364 1364 1362 1363 1375 1373 1377 1384
1303 1303 1302 1301 1300 1295 1294 1295 1299 1313 1329 1341 1354 1354 1353 1353 1354 1351 1347 1344 1342 1341 1344 1345 1351 1361 1360 1365 1372 1377 1384 1381 1380 1378 1377 1375 1373 1371 1370 1369 1368 1368 1368 1368 1368 1372 1374 1375 1375 1382 1382 1383 1387 1392
1304 1304 1303 1302 1300 1300 1298 1302 1314 1331 1348 1356 1358 1362 1360 1359 1357 1354 1350 1346 1344 1346 1351 1361 1366 1371 1380 1378 1385 1386 1385 1384 1382 1381 1380 1379 1378 1377 1376 1375 1375 1375 1374 1375 1377 1379 1381 1384 1386 1388 1390 1393 1396 1401
1306 1305 1303 1302 1301 1302 1310 1321 1327 1346 1359 1361 1364 1363 1363 1363 1362 1359 1355 1353 1351 1352 1358 1370 1382 1390 1394 1393 1392 1389 1387 1387 1386 1386 1385 1383 1383 1382 1382 1381 1381 1381 1381 1382 1383 1386 1390 1393 1394 1397 1399 1402 1403 1408
1309 1308 1305 1303 1303 1307 1321 1334 1339 1349 1361 1368 1369 1369 1368 1370 1368 1365 1361 1358 1358 1362 1376 1390 1400 1402 1400 1396 1393 1392 1391 1391 1389 1388 1390 1389 1389 1387 1387 1387 1389 1389 1389 1391 1392 1395 1397 1401 1403 1405 1406 1409 1412 1415
1311 1311 1309 1308 1306 1315 1332 1340 1348 1356 1363 1367 1369 1370 1375 1375 1373 1372 1370 1370 1370 1390 1401 1405 1404 1402 1399 1396 1394 1394 1393 1393 1393 1392 1393 1393 1394 1393 1394 1395 1396 1397 1398 1400 1401 1404 1406 1408 1410 1412 1414 1416 1419 1420
1313 1313 1313 1314 1319 1329 1341 1348 1352 1358 1363 1368 1370 1373 1377 1380 1381 1383 1386 1385 1401 1410 1410 1409 1407 1404 1401 1399 1398 1397 1397 1396 1396 1396 1397 1398 1398 1399 1401 1402 1403 1404 1406 1407 1408 1410 1412 1414 1417 1418 1420 1421 1423 1425
1316 1317 1319 1323 1329 1340 1355 1354 1356 1361 1366 1371 1374 1379 1384 1388 1391 1392 1402 1412 1417 1417 1414 1412 1410 1408 1406 1405 1403 1402 1402 1401 1401 1402 1402 1402 1403 1404 1406 1407 1409 1410 1411 1414 1415 1416 1417 1420 1422 1423 1425 1426 1427 1429
1319 1323 1330 1335 1342 1353 1356 1360 1363 1367 1370 1374 1377 1386 1391 1394 1398 1404 1416 1422 1423 1419 1416 1414 1413 1412 1410 1409 1407 1407 1407 1407 1407 1407 1408 1408 1408 1410 1412 1413 1415 1417 1418 1419 1421 1422 1423 1424 1425 1427 1428 1430 1432 1433
1326 1346 1347 1354 1355 1358 1367 1374 1376 1375 1384 1384 1387 1394 1398 1399 1406 1416 1424 1427 1425 1422 1420 1418 1416 1415 1414 1414 1413 1413 1414 1414 1413 1412 1414 1415 1415 1416 1417 1418 1420 1422 1424 1425 1425 1426 1427 1428 1429 1431 1432 1433 1434 1435
1351 1362 1364 1367 1371 1373 1379 1388 1390 1392 1392 1396 1399 1401 1401 1408 1420 1428 1429 1429 1427 1426 1424 1423 1422 1421 1420 1420 1420 1419 1420 1420 1420 1418 1420 1421 1421 1421 1422 1423 1424 1426 1427 1429 1429 1430 1431 1432 1433 1434 1434 1435 1437 1438
1368 1374 1374 1377 1378 1380 1387 1391 1393 1396 1403 1408 1407 1408 1412 1428 1434 1431 1431 1430 1429 1428 1427 1426 1426 1425 1425 1425 1425 1425 1425 1425 1424 1424 1424 1425 1425 1425 1426 1427 1428 1429 1429 1430 1432 1433 1434 1434 1435 1436 1437 1438 1439 1439
1375 1379 1383 1386 1386 1389 1396 1401 1406 1410 1409 1409 1409 1421 1428 1433 1433 1433 1432 1432 1432 1431 1431 1430 1430 1430 1429 1429 1429 1429 1429 1429 1429 1429 1429 1429 1429 1429 1429 1430 1430 1431 1432 1432 1433 1434 1435 1436 1436 1437 1438 1439 1440 1440
1384 1387 1388 1394 1395 1400 1408 1412 1413 1413 1413 1412 1417 1423 1426 1429 1432 1433 1434 1434 1435 1435 1434 1434 1433 1433 1433 1433 1433 1432 1432 1432 1432 1431 1431 1431 1431 1432 1432 1432 1432 1433 1433 1434 1434 1435 1435 1436 1437 1438 1438 1439 1439 1440
1392 1393 1396 1404 1410 1418 1419 1417 1417 1416 1415 1416 1418 1424 1428 1432 1434 1435 1436 1436 1437 1437 1436 1436 1436 1435 1435 1435 1434 1434 1433 1433 1433 1433 1432 1432 1432 1433 1433 1433 1433 1434 1434 1435 1435 1436 1436 1437 1437 1438 1438 1438 1439 1439
1395 1397 1404 1412 1421 1426 1425 1424 1423 1423 1422 1424 1426 1427 1430 1434 1437 1438 1438 1438 1438 1438 1438 1438 1438 1437 1436 1436 1435 1435 1435 1435 1434 1433 1433 1433 1434 1434 1434 1434 1434 1434 1434 1435 1435 1436 1436 1436 1437 1437 1438 1438 1438 1438
1400 1403 1408 1418 1425 1426 1426 1427 1428 1430 1431 1432 1433 1434 1435 1436 1438 1439 1440 1440 1440 1440 1439 1439 1439 1438 1438 1437 1437 1436 1436 1436 1436 1435 1435 1435 1435 1435 1435 1435 1435 1435 1435 1435 1435 1435 1436 1436 1436 1437 1437 1436 1436 1436
1408 1409 1412 1417 1423 1425 1427 1428 1429 1432 1433 1434 1436 1436 1436 1437 1438 1440 1441 1441 1442 1441 1441 1441 1440 1440 1440 1439 1439 1438 1438 1438 1437 1437 1436 1436 1436 1436 1435 1435 1435 1435 1435 1435 1435 1435 1435 1435 1435 1435 1435 1434 1434 1434